RH
45 34 40 30 26 32 33 32 32 34 32 28 25 26 26 28 27 33 57 61 56 63 57 65 83 82 83 85 83 83 80 77 73 69 66 66 66 64 62 71 76 75 75 77 77 76 74 73 73
32 44 34 26 22 31 28 27 34 30 33 33 32 31 30 35 54 73 68 63 57 61 56 57 88 84 86 84 83 82 79 75 69 66 64 64 63 63 64 70 75 76 75 75 76 76 72 73 72
42 43 23 21 20 21 24 28 24 31 31 33 41 42 39 48 60 58 55 58 61 64 61 64 88 85 85 83 80 80 78 71 69 67 62 63 64 66 64 67 73 76 76 75 75 74 74 72 71
43 32 28 25 21 20 20 26 30 30 32 36 38 43 47 49 57 54 56 60 65 68 67 82 86 82 81 75 76 76 75 69 63 64 62 65 72 69 70 74 72 76 77 76 73 73 73 72 71
37 30 21 25 20 30 30 28 35 33 31 35 40 44 52 60 56 57 61 62 69 70 70 65 84 79 74 71 73 74 65 66 65 69 69 68 74 74 74 74 74 76 77 74 74 74 73 72 71
32 31 19 16 16 31 28 32 35 34 31 31 38 42 55 76 61 70 73 73 66 72 73 62 82 83 78 74 72 75 76 74 72 74 73 72 76 76 75 74 74 78 79 79 75 74 74 72 71
33 27 25 22 24 27 26 30 27 28 31 30 38 45 60 82 65 76 80 78 73 72 67 59 54 63 81 78 80 81 81 79 79 81 83 82 83 82 83 81 79 73 75 82 77 78 77 73 73
39 28 34 28 23 26 37 33 31 31 26 44 54 43 60 69 73 84 88 84 82 74 69 61 54 54 51 59 84 83 86 86 87 90 89 90 88 87 88 87 82 78 77 81 83 83 79 75 74
47 31 26 42 42 41 38 37 32 32 34 59 66 67 61 64 81 94 94 95 91 82 72 62 57 56 50 52 60 88 89 93 94 90 94 86 63 65 69 79 84 80 78 84 86 83 82 82 84
42 34 50 46 43 45 42 41 41 36 49 45 56 76 65 73 86 92 92 95 96 89 78 64 57 53 53 48 60 61 64 64 58 60 59 50 55 60 69 78 91 89 90 89 86 87 89 80 53
56 48 53 48 36 31 41 41 38 39 46 46 66 64 86 86 85 80 83 83 86 86 83 70 65 52 56 50 56 56 60 62 65 64 59 55 55 66 62 63 63 66 81 64 74 78 62 57 52
49 41 36 40 30 34 39 38 47 29 32 53 68 65 90 91 88 81 71 76 74 80 75 76 70 63 58 52 56 53 57 60 65 68 64 63 61 74 64 58 60 63 61 65 67 69 66 61 57
40 35 34 35 31 31 33 45 40 31 29 59 76 85 90 90 92 87 82 71 82 79 77 73 72 66 58 59 56 59 54 59 59 68 68 64 68 73 70 63 59 58 60 61 62 63 64 64 62
42 40 35 34 33 36 39 39 40 34 32 27 65 74 64 68 75 76 80 76 71 76 78 77 74 77 70 63 61 63 60 59 60 62 67 67 70 69 69 67 61 59 56 58 60 62 64 64 64
39 36 32 37 37 37 40 50 47 40 28 33 35 54 52 53 61 63 69 72 79 74 71 75 83 78 71 74 72 62 66 61 69 62 65 69 64 72 67 65 64 60 58 62 62 65 63 63 65
41 41 36 41 40 38 38 53 50 43 36 42 49 42 49 49 51 51 61 63 67 77 78 87 80 84 77 70 76 74 66 66 83 70 63 69 66 68 70 69 68 62 61 59 60 62 64 63 62
41 43 49 46 40 42 38 52 53 45 42 43 44 47 48 50 47 47 48 50 60 65 74 80 90 88 84 83 80 73 72 66 80 89 64 68 68 67 71 70 69 68 64 61 60 61 60 62 61
56 50 52 52 48 46 50 59 53 48 45 45 43 43 45 49 57 51 46 47 48 54 60 71 79 91 88 91 92 90 87 81 72 87 93 76 76 77 74 69 71 71 70 67 65 63 62 60 62
55 56 54 52 48 50 55 56 55 49 47 48 46 47 47 48 48 49 47 44 48 52 55 57 66 72 84 95 98 99 97 95 90 86 84 94 93 90 83 69 70 72 74 73 69 67 69 74 74
55 59 59 54 52 45 52 56 55 52 54 53 52 50 50 48 47 50 48 46 48 51 54 56 58 67 72 86 96 96 97 96 90 88 86 88 85 83 88 75 73 73 75 75 76 72 74 71 72
64 67 67 69 58 51 49 46 47 54 49 48 50 49 49 52 54 52 53 50 49 53 56 58 58 61 65 71 87 96 98 99 98 96 93 85 89 86 81 80 71 69 70 72 76 74 74 74 72
66 68 71 72 65 55 48 47 44 53 51 48 51 52 54 55 52 51 55 55 53 56 58 60 60 59 57 66 79 94 91 94 95 94 94 90 87 92 86 88 81 76 75 73 75 72 72 73 74
67 68 64 67 65 59 52 55 41 55 51 51 52 56 56 56 57 54 54 57 52 55 58 61 61 60 59 62 67 79 91 93 83 94 95 96 90 85 87 87 88 88 89 85 80 79 77 71 72
64 59 50 51 60 82 60 57 43 49 62 55 53 56 58 59 60 52 52 55 55 56 57 59 60 60 59 62 64 67 76 88 96 98 97 97 95 95 92 92 88 84 83 86 89 88 86 90 88
68 72 87 82 84 73 51 58 48 62 62 61 61 59 56 57 56 55 58 60 59 62 62 60 62 63 61 62 64 66 69 74 83 90 94 96 97 97 96 96 97 96 93 89 87 90 91 92 93
77 67 86 86 77 63 51 58 55 60 59 58 58 56 54 54 52 56 60 65 63 65 66 65 66 68 67 66 67 67 68 73 75 83 86 90 92 92 87 93 94 93 90 92 92 94 95 94 96
86 89 76 86 81 80 49 43 63 66 62 57 58 52 51 54 56 57 60 63 64 65 69 70 71 70 71 72 71 70 68 68 73 73 82 85 86 89 87 88 91 93 96 96 97 97 96 96 94
76 70 80 79 90 80 62 54 45 64 57 57 57 52 53 55 56 57 57 66 66 65 70 71 73 75 74 74 72 72 72 71 71 72 79 88 88 91 91 90 84 86 90 93 96 97 96 97 95
68 75 65 68 73 84 86 49 58 62 58 64 58 55 57 59 59 60 60 65 69 67 73 77 78 82 79 79 78 80 80 78 79 77 70 77 91 91 92 88 87 90 90 94 97 98 97 98 98
68 71 74 74 81 79 79 59 66 68 66 66 62 60 61 62 61 62 64 67 72 74 74 77 77 84 81 79 82 85 83 84 87 88 89 87 92 91 92 91 90 89 88 90 94 97 96 97 98
Wind_Speed
12 9 3 4 7 6 10 6 3 5 4 2 4 2 4 5 0 4 4 4 19 19 18 18 16 17 16 17 16 15 16 16 16 14 13 11 11 10 9 12 11 11 15 20 22 23 22 20 20
8 3 4 1 8 10 11 9 9 5 3 4 5 5 4 4 4 7 12 10 20 18 17 17 14 18 18 17 16 14 15 15 14 13 12 11 10 10 9 11 10 12 17 20 23 20 20 20 19
4 2 4 4 8 14 6 10 9 1 2 2 2 2 1 4 4 12 7 18 19 17 15 14 13 18 17 16 15 14 14 12 11 13 13 11 10 10 9 9 9 10 16 19 22 19 20 19 19
3 3 3 7 12 8 11 4 3 6 2 1 0 3 4 5 7 4 17 21 18 17 16 13 14 16 17 15 14 14 14 12 12 9 10 10 8 11 7 10 10 10 15 18 20 18 18 19 19
2 2 5 7 12 3 5 6 5 5 1 1 2 5 3 4 4 11 18 18 18 17 14 16 13 14 14 15 13 13 13 13 12 10 10 8 8 11 7 9 11 10 12 17 19 18 17 18 18
3 2 5 9 6 3 5 5 7 7 5 3 2 5 5 3 7 14 15 15 17 17 14 16 13 10 12 12 12 13 12 11 12 9 8 8 10 11 9 9 12 11 10 17 19 18 17 16 17
2 3 2 4 3 1 4 9 6 9 8 6 4 3 4 4 10 12 13 12 15 14 13 15 16 13 10 10 8 10 10 10 10 9 9 7 11 10 11 9 11 11 11 15 18 17 16 16 16
1 3 4 2 2 2 7 6 3 3 4 2 5 1 5 10 12 11 11 12 12 12 13 15 14 13 13 9 7 6 8 8 8 10 9 9 10 9 9 9 8 9 8 13 17 17 15 16 15
3 4 3 2 3 3 7 6 4 3 4 3 5 5 3 15 12 11 12 9 9 9 11 12 13 13 12 11 9 7 7 7 10 10 8 11 10 9 10 8 9 9 7 9 17 16 16 13 11
3 2 3 4 6 6 10 7 7 2 4 6 4 8 6 16 13 13 13 12 9 12 8 11 12 14 11 9 9 8 7 8 8 7 9 6 8 9 7 7 9 9 8 9 15 14 13 11 9
3 3 2 2 6 9 9 7 12 2 6 10 13 4 6 12 13 14 14 14 15 13 8 10 10 12 12 10 7 5 5 5 5 8 6 6 6 7 6 6 6 6 7 6 9 11 9 7 7
2 6 5 5 7 7 6 10 7 14 10 12 11 4 3 5 7 9 12 14 16 18 16 12 12 11 12 8 8 8 6 6 6 6 7 6 5 6 6 5 5 5 5 7 7 6 6 8 7
6 5 3 8 4 5 8 5 4 14 21 11 9 8 8 7 7 5 3 8 10 16 16 15 13 12 13 11 9 7 7 6 7 7 8 6 6 7 5 5 5 4 5 5 6 6 6 7 7
1 1 7 8 5 6 5 6 2 17 19 14 14 17 16 18 15 14 16 14 8 10 12 13 14 10 9 10 12 8 7 8 7 7 8 9 7 7 7 6 5 5 5 5 5 5 6 6 5
1 2 2 17 13 5 8 4 14 18 10 14 16 14 16 17 16 15 12 13 13 10 9 12 11 12 12 11 9 8 8 8 7 7 9 10 9 8 9 6 6 5 4 5 4 4 4 4 4
1 1 2 12 17 5 6 6 16 16 10 14 14 14 14 16 17 17 16 16 15 13 10 2 8 10 11 12 9 6 8 8 5 6 7 11 10 10 9 7 6 6 5 5 5 4 4 4 4
5 4 7 2 17 5 6 3 14 13 10 13 13 13 12 13 17 17 17 15 14 13 13 15 6 6 11 10 8 9 8 8 7 4 7 11 11 10 9 8 7 7 6 6 5 5 5 5 4
5 3 3 6 10 10 11 10 10 12 13 13 13 13 13 14 16 16 16 15 14 14 12 11 10 12 9 8 7 7 7 6 6 7 6 8 8 9 9 8 9 8 7 6 6 7 5 4 4
2 1 4 2 5 5 9 9 9 11 14 15 14 14 14 15 14 16 15 14 14 14 15 15 13 13 8 5 4 4 6 7 7 7 13 11 9 8 9 8 10 10 10 9 10 8 8 5 3
3 2 5 1 6 2 5 7 6 11 12 13 13 14 14 14 13 13 14 14 14 13 13 13 14 12 9 6 5 3 4 5 8 8 11 12 14 14 9 11 11 12 9 12 11 11 7 7 6
4 7 6 4 5 1 4 4 3 2 6 11 12 12 13 14 15 16 16 15 14 15 16 13 13 12 10 11 7 4 2 2 4 7 7 12 12 11 14 13 11 12 11 11 13 12 14 8 7
3 6 5 4 4 2 2 0 6 1 1 10 13 13 13 14 14 14 16 16 15 14 13 14 13 11 9 10 8 6 7 5 6 6 7 9 13 12 15 12 12 10 9 12 10 11 11 10 9
4 8 3 1 2 3 5 5 6 0 1 11 13 13 13 13 14 15 15 14 13 13 13 12 13 12 11 10 8 6 6 5 7 7 10 10 12 14 14 14 13 12 9 10 10 11 12 10 9
10 3 1 1 1 3 1 4 6 2 3 8 11 11 12 13 13 14 14 14 14 14 13 12 13 13 13 11 11 9 7 6 5 7 7 7 7 8 13 13 12 12 11 12 11 11 11 10 7
11 3 2 3 2 2 1 5 5 4 3 6 9 10 10 10 12 14 16 16 15 15 15 13 13 13 13 13 12 11 11 10 9 8 8 8 7 6 10 12 10 9 11 12 11 11 11 11 10
6 6 3 5 4 4 1 4 4 4 2 4 4 6 8 11 11 13 14 14 15 16 15 15 14 14 13 13 12 11 11 7 7 8 6 6 7 8 9 10 10 11 11 12 11 8 9 10 11
4 4 2 2 2 4 1 2 5 5 3 4 5 7 10 11 11 13 13 12 13 14 15 14 14 13 12 13 11 11 10 10 9 11 8 6 7 5 7 10 11 10 9 10 10 8 10 10 10
4 1 1 1 5 4 1 4 3 2 3 4 5 8 10 11 12 12 11 12 12 13 13 13 13 13 13 12 10 10 11 11 11 10 9 8 6 6 8 9 11 10 9 9 9 8 9 10 9
3 1 1 1 2 3 5 2 2 3 5 6 5 7 9 11 11 11 11 11 11 12 13 12 12 12 12 12 11 10 9 10 11 9 9 8 7 8 8 7 7 5 6 5 6 8 8 8 8
4 4 3 3 1 1 3 5 3 6 6 6 6 7 8 9 9 10 10 11 11 12 13 13 12 12 11 11 10 10 10 9 9 9 9 7 7 9 8 9 9 9 9 9 8 8 8 7 7
Wind_Direction
321 325 306 258 241 239 238 217 283 207 213 130 106 222 186 36 226 10 147 117 144 151 150 156 151 145 140 131 133 137 135 135 132 131 134 131 128 130 120 91 104 108 117 117 113 107 108 110 108
324 317 215 250 245 227 226 225 220 220 48 119 130 134 175 108 71 107 140 173 154 150 151 153 146 141 138 137 138 142 139 130 136 138 144 142 141 138 133 106 102 113 125 121 112 114 115 115 112
282 309 202 218 237 240 270 222 235 89 170 238 147 344 73 96 95 150 122 158 147 146 148 147 145 145 144 144 143 131 120 135 144 147 141 143 142 143 141 131 113 123 128 126 118 121 119 118 116
316 179 167 230 230 256 254 357 307 234 168 218 174 137 113 20 145 143 147 152 146 144 146 149 141 148 154 137 129 128 137 145 155 148 147 157 161 153 149 139 130 126 137 129 122 123 122 120 118
318 255 223 237 244 270 255 279 324 298 320 118 193 134 86 62 109 145 152 155 143 144 143 155 145 144 139 144 141 148 156 151 164 150 151 150 156 146 148 141 132 120 142 133 128 127 127 126 122
166 249 230 241 237 276 263 343 290 263 307 3 223 150 96 27 152 150 145 148 145 143 147 148 139 144 148 154 156 148 151 155 151 159 157 153 146 144 119 113 131 126 129 139 134 132 129 128 125
213 207 223 245 265 303 340 332 266 283 256 288 333 208 91 134 157 149 142 142 141 144 149 150 157 149 142 149 163 157 163 161 150 147 128 136 144 138 114 109 125 123 121 145 139 136 135 134 132
287 252 212 214 237 166 2 331 325 328 278 346 359 237 157 158 157 133 124 128 136 149 147 152 158 160 164 164 137 160 165 153 139 120 118 118 119 122 117 122 114 113 109 131 143 138 139 140 137
302 249 269 17 317 38 3 353 31 339 273 35 22 337 337 146 154 131 132 132 138 146 154 154 158 164 165 175 151 136 130 116 111 120 115 143 144 146 147 104 118 110 108 129 147 144 140 138 134
353 281 56 25 8 339 331 353 338 302 107 26 19 6 166 153 159 147 157 152 149 148 160 157 164 166 177 174 156 165 145 167 163 163 165 160 155 151 141 116 101 100 104 121 145 139 131 161 152
30 38 26 42 340 331 321 358 18 349 52 3 319 288 183 166 163 162 169 172 165 153 151 162 168 170 182 172 174 175 165 171 167 165 172 162 153 154 162 145 149 143 156 132 153 143 168 171 169
108 36 0 342 327 320 341 327 62 31 4 327 326 195 319 148 150 166 183 180 174 172 167 165 176 175 183 178 189 184 184 176 171 172 171 168 171 182 172 170 160 161 168 159 165 175 177 179 181
50 7 20 353 304 304 308 31 52 21 353 5 47 63 45 61 54 48 318 185 186 179 179 179 175 181 182 191 183 193 192 186 185 176 177 175 182 187 171 174 178 169 168 171 175 175 177 182 183
120 208 28 15 16 24 313 42 316 355 341 39 54 54 53 50 41 30 12 332 225 191 190 186 182 183 178 197 192 186 193 190 192 191 182 185 187 194 181 194 187 181 183 175 177 181 182 189 198
316 198 29 21 359 33 324 93 16 347 347 45 62 63 54 44 38 37 14 1 341 314 222 191 186 194 194 187 197 196 194 194 195 194 194 194 190 200 191 200 193 185 180 178 176 175 191 197 203
10 264 322 28 5 24 318 115 8 4 31 45 42 50 49 49 43 29 19 8 0 0 335 283 191 187 209 211 197 191 205 196 185 195 195 197 197 188 204 202 200 191 185 187 189 187 193 212 217
47 41 16 57 21 336 351 48 11 17 39 49 43 36 34 31 33 24 20 12 5 4 10 359 315 246 216 209 211 206 206 210 188 184 199 200 201 193 199 207 206 190 194 200 199 198 212 210 218
6 26 38 36 18 43 66 72 42 34 47 43 38 36 30 25 21 14 10 6 7 9 12 10 0 14 289 208 209 208 194 214 202 188 188 194 206 203 209 206 199 194 198 206 207 215 211 234 235
5 13 22 51 18 56 68 68 51 44 46 36 32 27 25 20 10 14 2 358 3 12 8 3 0 4 339 321 189 226 192 196 198 198 188 183 195 201 212 214 206 198 201 206 206 208 212 208 205
42 360 29 209 13 129 127 99 82 51 49 39 25 23 17 10 11 10 1 357 0 1 4 357 354 349 350 331 325 185 185 203 205 192 193 194 202 200 208 213 212 206 204 210 207 204 201 217 189
45 13 337 306 334 74 204 181 198 124 47 41 36 25 20 11 1 358 360 358 354 356 350 348 346 340 338 332 318 232 134 165 188 201 195 202 194 211 213 212 219 218 212 207 207 206 207 211 201
292 4 302 282 230 193 274 128 199 274 73 33 24 19 13 6 1 359 354 352 352 347 341 337 337 336 334 334 336 340 225 200 201 194 199 198 206 200 210 209 216 217 224 229 216 208 212 218 212
331 327 305 297 192 210 179 259 118 148 209 9 11 10 9 4 357 352 352 350 347 346 342 336 332 333 336 337 329 323 325 242 205 196 210 203 194 201 205 208 202 206 212 224 227 221 217 215 219
326 246 191 140 240 230 101 284 137 151 9 349 1 9 6 4 354 348 351 348 347 346 344 341 338 333 335 333 329 319 310 307 232 205 208 202 204 203 209 208 213 214 215 213 213 220 217 221 224
3 317 238 205 224 8 50 267 28 130 62 358 348 359 2 0 357 352 353 349 347 346 344 342 341 335 335 329 325 322 311 302 290 228 202 198 204 204 210 210 212 210 211 218 218 215 211 211 215
2 358 24 309 326 335 321 258 85 133 98 4 345 345 348 352 354 357 355 348 343 343 344 342 341 336 334 329 323 317 309 301 296 295 258 209 208 213 209 211 220 222 218 218 220 223 219 215 217
1 35 355 274 131 259 316 220 163 180 244 324 336 334 347 346 347 352 354 351 345 343 343 341 338 334 333 329 323 317 310 303 293 293 296 243 221 224 204 208 214 218 222 221 216 217 223 217 221
339 357 262 42 336 317 328 281 348 190 292 329 333 341 342 342 346 350 350 350 348 347 345 344 342 336 333 331 329 320 313 304 294 282 269 277 216 192 209 209 221 222 220 221 219 219 228 226 228
340 332 2 335 315 326 316 85 164 245 305 315 324 329 334 341 345 345 346 348 348 352 350 347 349 344 344 338 339 338 333 321 311 266 266 248 212 201 212 218 224 229 243 254 234 231 234 226 228
290 294 295 288 177 273 300 282 169 242 284 294 289 309 327 334 344 346 346 344 352 353 351 350 353 351 348 347 352 357 359 3 7 20 14 12 85 57 69 75 71 58 43 31 38 47 39 59 60